Regional Weather Roundup
Issued by NWS Wakefield, VA

Home | Current Version | Previous Version | Graphics & Text | Print | Product List | Glossary On
Versions: 1 2 3 4 5 6 7 8 9 10 11 12 13 14 15 16 17 18 19 20 21 22 23 24 25 26 27 28 29 30 31 32 33 34 35 36 37 38 39 40 41 42 43 44 45 46 47 48 49 50
000
ASUS41 KAKQ 240815
RWRAKQ

REGIONAL WEATHER ROUNDUP
NATIONAL WEATHER SERVICE WAKEFIELD VA
400 AM EDT SUN JUL 24 2016

Note: "fair" indicates few or no clouds below 12,000 feet with no
significant weather and/or obstructions to visibility. * = Denotes
station may not report precipitation (e.g., rain,snow,etc.),
thunder or fog.

VAZ042-051-052>054-056-240900-
NORTHERN VIRGINIA

CITY           SKY/WX    TMP DP  RH WIND       PRES   REMARKS
WASH NATIONAL  FAIR      81  72  74 N7        29.95R
DULLES         FAIR      75  70  84 CALM      29.96S
FORT BELVOIR   FAIR      74  72  94 CALM      29.94S
QUANTICO       FAIR      80  74  81 CALM      29.94S
FREDERICKSBRG* FAIR      76  76 100 CALM      29.94S
STAFFORD*      FAIR      73  71  93 NW5       29.99R
WARRENTON      FAIR      73  68  83 CALM      29.96R
CULPEPER*      FAIR      73  73  98 CALM      29.97S
MANASSAS*      FAIR      73  73 100 CALM      29.96R
LEESBURG*      FAIR      77  73  88 CALM      29.98R
WINCHESTER     FAIR      77  68  73 NW5       29.99S
FRONT ROYAL*   FAIR      73  70  88 CALM      29.98S
LURAY*         FAIR     N/A N/A N/A CALM      30.01S
$$

VAZ048-049-060>072-079>083-240900-
CENTRAL AND SOUTH CENTRAL VIRGINIA

CITY           SKY/WX    TMP DP  RH WIND       PRES   REMARKS
RICHMOND       FAIR      78  74  87 S3        29.94F
CHESTERFIELD*  FAIR      77  63  61 CALM      29.96F
PETERSBURG*    FAIR     N/A N/A N/A CALM      29.96F
HANOVER        FAIR      77  72  84 CALM      29.96F
TAPPAHANNOCK*  FAIR      77  77 100 CALM      29.94F
QUINTON*       FAIR      76  76  98 MISG      29.94F
CHARLOTTSVILLE FAIR      76  72  87 CALM      29.97F
GORDONSVILLE*  FAIR      73  73 100 CALM      29.96F FOG
ORANGE*          N/A     73  73 100 CALM      29.98S
LOUISA*        FAIR      79  75  89 CALM      29.95F
BUMPASS*       FAIR      74  74  98 CALM      29.96S
FARMVILLE*     FAIR     N/A N/A N/A CALM      29.96S
CREWE*         FAIR      74  74 100 CALM      29.97S
FORT PICKETT*  FAIR      73  73  97 S3        29.97F
CHASE CITY*    FAIR      75  73  95 CALM      29.99S
CLARKSVILLE*   FAIR      73  73 100 S5        29.98F
SOUTH HILL*    FAIR      74  74 100 S5        30.04S
LAWRENCEVILLE* FAIR      75  75  99 SW5       29.98S
EMPORIA*       FAIR      75  73  94 CALM      29.99S
$$

VAZ088>098-240900-
SOUTHEAST VIRGINIA

CITY           SKY/WX    TMP DP  RH WIND       PRES   REMARKS
NORFOLK        FAIR      80  74  81 SW9       29.95F
VIRGINIA BEACH MOCLDY    83  74  74 SW8       29.95S
NORFOLK NAVAL  FAIR      80  74  81 SW9       29.96F
WEST POINT*    FAIR      80  76  86 CALM      29.95F
SALUDA*        FAIR      81  77  89 SW3       29.93F
NEWPORT NEWS   FAIR      80  76  87 SW8       29.95F
LANGLEY AFB    FAIR      81  76  86 S10       29.95S
FORT EUSTIS    FAIR      80  77  90 SW6       29.93F
WILLIAMSBURG*  FAIR      82  77  83 SW5       29.96F
HR EXEC AP*    FAIR      77  73  88 SW6       29.97F
FRANKLIN*      FAIR      76  74  91 S3        29.97F
US460-WAKEFLD  FAIR      78  75  90 S3        29.96S FOG
$$

VAZ020-022-025-037-045-240900-
WEST CENTRAL AND SOUTHWEST VIRGINIA

CITY           SKY/WX    TMP DP  RH WIND       PRES   REMARKS
STAUNTON*      FAIR      70  68  94 CALM      30.05S
WAYNESBORO*    FAIR      72  68  88 S5        30.04S
HOT SPRINGS VA FAIR      72  64  78 NW3       30.17S
LYNCHBURG      FAIR      72  70  93 CALM      30.01F
DANVILLE       FAIR      74  72  93 S3        29.99S
SOUTH BOSTON*  FAIR      73  71  95 CALM      29.99S
MARTINSVILLE   CLOUDY    68  67  97 CALM      30.03F
ROANOKE        FAIR      73  68  84 W3        30.04S
BLACKSBURG     FAIR      69  69  98 CALM      30.12S
DUBLIN*        FAIR      70  67  91 CALM      30.11R
MARION*        FAIR      69  67  93 W6        30.16R
HILLSVILLE*    FAIR      69  67  94 SW3       30.12S
RICHLANDS*     FAIR      70  70 100 CALM      30.12F
WISE*          FAIR      72  64  78 CALM      30.14S
ABINGDON*      FAIR      71  69  95 CALM      30.10F
$$

MDZ021>025-VAZ099-100-240900-
SOUTHERN MARYLAND AND THE DELMARVA PENINSULA

CITY           SKY/WX    TMP DP  RH WIND       PRES   REMARKS
PATUXENT RIVER CLEAR     81  74  79 W8        29.93S
BAY BRIDGE APT PTCLDY    77  75  94 CALM      29.94R
LEONARDTOWN    CLEAR     79  72  78 W3        29.95S
DOVER          CLEAR     73  73 100 N2        29.92S
GEORGETOWN     CLEAR     78  74  87 N5        29.94R
EASTON         CLEAR     77  77 100 CALM      29.98R
CAMBRIDGE      CLEAR     75  73  94 CALM      29.92S
SALISBURY      CLEAR     80  77  90 W3        29.92S
OCEAN CITY     PTCLDY    77  71  82 CALM      29.92S
WALLOPS ISLAND FAIR      84  77  79 W7        29.92F
ACCOMACK*      FAIR      82  75  78 CALM      29.93F
$$

NCZ012>017-030>032-240900-
NORTH CENTRAL AND EASTERN NORTH CAROLINA

CITY           SKY/WX    TMP DP  RH WIND       PRES   REMARKS
ROANOKE RAPIDS FAIR      73  72  94 S5        29.98F
RALEIGH        PTCLDY    75  73  93 SW5       30.00F
ELIZABETH CITY CLOUDY    78  74  87 S8        29.98F
AHOSKIE*       PTCLDY    74  73  96 CALM      29.98F
EDENTON*       CLOUDY    80  74  82 SW10      30.00S
CURRITUCK*     CLOUDY    79  75  87 SW6       29.98F
KILL DEVIL HLS CLOUDY    80  74  84 SW7       29.98F
MANTEO           N/A     79  78  95 W10       30.00S
CAPE HATTERAS  PTCLDY    80  76  87 W7        30.02R
TARBORO*       FAIR      76  74  92 CALM      30.01S
GOLDSBORO      CLEAR     74  74 100 SE2       29.99S
WASHINGTON     CLEAR     75  71  86 SW6       30.01S
GREENVILLE     CLEAR     77  73  88 SW5       30.02S
NEW BERN       PTCLDY    76  74  93 SW3       30.03S
WILMINGTON     MOCLDY    78  76  93 S3        30.01F
$$

VAZ048-240900-
ELSEWHERE

CITY           SKY/WX    TMP DP  RH WIND       PRES   REMARKS
HARRISBURG PA  PTCLDY    70  65  84 N5        29.96S
BALTIMORE      PTCLDY    73  68  84 CALM      29.95R
ANNAPOLIS      PTCLDY    78  74  87 CALM      29.94R
ANDREWS AFB    FAIR      79  71  75 NW6       29.95R
PHILADELPHIA   PTCLDY    76  68  76 CALM      29.94S
GREENSBORO     CLEAR     75  71  87 SW5       30.01S
ROCKY MOUNT    CLEAR     75  73  93 CALM      30.00S
$$

VAZ100-240900-
MARINE

STATION/POSITION TIME  TEMP    WIND        PRES    WAVE   SWELL
                       AIR SEA DIR/SP/G            HT/PER HT/PER
                 (UTC) (F)     (DEG/KT/KT) (MB)    (FT/S) (FT/S)
BRANDYWINE LGT   0700   79     340/  6/  7   N/A
CAPE MAY NJ      0700   77 73  340/  1/  2 1012.9R
LEWES DE         0700   78 75  350/  8/ 10 1013.2R
OCEAN-CITY-INLET 0700   77 68  180/  4/  5 1013.6R
WACHAPREAGUE VA  0700   83 85  240/  5/  9 1013.6S
THOMAS POINT MD  0800   81 82  330/  6/  7 1015.3R
GOOSES REEF MD   0800   85 84  340/ 12/ 14 1014.2S   1
COVE POINT MD    0700   83     280/  7/ 10 1013.8R
SOLOMONS ISLAND  0700   83 85  250/  5/  7   N/A
BISHOPS HEAD MD  0700   85 87  260/ 12/ 14 1013.7R
PINEY POINT MD   0700          290/  6/  7   N/A
POTOMAC MD       0800   84 84  300/  8/ 10 1012.4F   1/ 2
CAMBRIDGE MD     0700   83 86  250/  4/  5 1012.4S
LEWISETTA VA     0700   83 87  250/  9/ 12 1013.3R
RAPPAHANNOCK LGT 0700          230/ 14/ 15 1014.4R
STINGRAY PT      0800   83 84  190/ 12/ 14 1013.8F   1
YORK RVR RNG VA  0700   83     250/ 12/ 14 1013.5F
YORKTOWN VA      0700   82 83  230/  9/ 12 1013.7F
JAMESTOWN VA     0800   81 87  220/  8/ 12   N/A
DOMINION TERM VA 0700   82     230/ 12/ 15 1014.3F
KIPTOPEKE VA     0700      79  230/ 10/ 12   N/A
CHES BAY BRIDGE  0700   82 73  200/ 14/ 16 1014.0F
CAPE HENRY VA    0700   81     220/  9/ 13   N/A
WILLOUBY STN VA  0700   81     220/ 14/ 15   N/A
CAPE HENRY BUOY  0712      79                N/A     2/ 8
1ST LANDING BUOY 0800   80 78  220/ 10/ 12 1013.9F
CAPE CHARLES BUO 0726      71                N/A     2/10
OFFSHORE WE BUOY 0721      81                N/A     3/ 5
64NM E OF VA BCH 0750   81 80  240/ 14/ 17 1014.5F   3/ 5   2/ 8
DUCK PIER NC     0700   81 60  230/ 12/ 15 1014.9R
44100 DUCK FRF   0705      79                N/A     2/ 9
44056 DUCK FRF   0711      69                N/A     1/ 8
OREGON INLET NC  0700   83 85  230/ 15/ 17 1015.7S
HATTERAS NC      0700   81 83  220/  6/  9 1015.9F
DIAMOND SHLS NC  0750   84 85  230/ 14/ 17 1016.2F   3/ 4   2/ 9
CAPE LOOKOUT NC  0700   82     230/  6/  8 1016.4R
$$



USA.gov is the U.S. government's official web portal to all federal, state and local government web resources and services.